Year,Month,Day,Hour,Minute,Value (Times are PST for temperature in C)
2013,04,01,07,34,11.10
2013,04,01,07,35,11.10
2013,04,01,07,36,11.00
2013,04,01,07,37,10.90
2013,04,01,07,38,10.90
2013,04,01,07,39,10.90
2013,04,01,07,40,10.90
2013,04,01,07,41,10.90
2013,04,01,07,42,10.90
2013,04,01,07,43,10.90
2013,04,01,07,44,10.90
2013,04,01,07,45,10.90
2013,04,01,07,46,10.90
2013,04,01,08,54,10.70
2013,04,01,08,55,10.70
2013,04,01,08,56,10.70
2013,04,01,08,57,10.80
2013,04,01,08,58,10.80
2013,04,01,08,59,10.70
2013,04,01,09,00,10.70
2013,04,01,09,01,10.60
2013,04,01,09,02,10.50
2013,04,01,09,03,10.50
2013,04,01,09,04,10.50
2013,04,01,09,05,10.50
2013,04,01,09,06,10.60
2013,04,01,09,07,10.60
2013,04,01,09,08,10.70
2013,04,01,09,09,10.70
2013,04,01,09,10,10.80
2013,04,01,09,11,10.80
2013,04,01,09,12,10.90
2013,04,01,09,13,10.90
2013,04,01,09,14,11.00
2013,04,01,09,15,11.00
2013,04,01,09,16,11.00
2013,04,01,09,17,11.10
2013,04,01,09,18,11.20
2013,04,01,09,19,11.20
2013,04,01,09,20,11.30
2013,04,01,09,21,11.40
2013,04,01,09,22,11.50
2013,04,01,09,23,11.60
2013,04,01,09,24,11.70
2013,04,01,09,25,11.80
2013,04,01,09,26,11.80
2013,04,01,09,27,11.80
2013,04,01,09,28,11.80
2013,04,01,09,29,11.70
2013,04,01,09,30,11.70
2013,04,01,09,31,11.60
2013,04,01,09,32,11.60
2013,04,01,09,33,11.50
2013,04,01,09,34,11.60
2013,04,01,09,35,11.60
2013,04,01,09,36,11.60
2013,04,01,09,37,11.50
2013,04,01,09,38,11.50
2013,04,01,09,39,11.60
2013,04,01,09,40,11.60
2013,04,01,09,41,11.60
2013,04,01,09,42,11.60
2013,04,01,09,43,11.60
2013,04,01,09,44,11.50
2013,04,01,09,45,11.60
2013,04,01,09,46,11.60
2013,04,01,09,47,11.60
2013,04,01,09,48,11.70
2013,04,01,09,49,11.70
2013,04,01,09,50,11.70
2013,04,01,09,51,11.60
2013,04,01,09,52,11.50
2013,04,01,09,53,11.40
2013,04,01,09,54,11.30
2013,04,01,09,55,11.30
2013,04,01,09,56,11.20
2013,04,01,09,57,11.10
2013,04,01,09,58,11.00
2013,04,01,09,59,11.00
2013,04,01,10,00,11.00
2013,04,01,10,01,11.10
2013,04,01,10,02,11.10
2013,04,01,10,03,11.20
2013,04,01,10,04,11.30
2013,04,01,10,05,11.30
2013,04,01,10,06,11.40
2013,04,01,10,07,11.40
2013,04,01,10,08,11.50
2013,04,01,10,09,11.40
2013,04,01,10,10,11.50
2013,04,01,10,11,11.60
2013,04,01,10,12,11.60
2013,04,01,10,13,11.60
2013,04,01,10,14,11.60
2013,04,01,10,15,11.60
2013,04,01,10,16,11.70
2013,04,01,10,17,11.80
2013,04,01,10,18,11.80
2013,04,01,10,19,11.80
2013,04,01,10,20,11.80
2013,04,01,10,21,11.80
2013,04,01,10,22,11.90
2013,04,01,10,23,11.90
2013,04,01,10,24,11.90
2013,04,01,10,25,11.90
2013,04,01,10,26,11.90
2013,04,01,10,27,11.90
2013,04,01,10,28,11.90
2013,04,01,10,29,11.80
2013,04,01,10,30,11.80
2013,04,01,10,31,11.80
2013,04,01,10,32,11.80
2013,04,01,10,33,11.80
2013,04,01,10,34,11.70
2013,04,01,10,35,11.70
2013,04,01,10,36,11.60
2013,04,01,10,37,11.60
2013,04,01,10,38,11.50
2013,04,01,10,39,11.50
2013,04,01,10,40,11.50
2013,04,01,10,41,11.60
2013,04,01,10,42,11.60
2013,04,01,10,43,11.60
2013,04,01,10,44,11.70
2013,04,01,10,45,11.70
2013,04,01,10,46,11.70
2013,04,01,10,47,11.80
2013,04,01,10,48,11.70
2013,04,01,10,49,11.70
2013,04,01,10,50,11.70
2013,04,01,10,51,11.70
2013,04,01,10,52,11.70
2013,04,01,10,53,11.60
2013,04,01,10,54,11.60
2013,04,01,10,55,11.50
2013,04,01,10,56,11.50
2013,04,01,10,57,11.50
2013,04,01,10,58,11.50
2013,04,01,10,59,11.60
2013,04,01,11,00,11.50
2013,04,01,11,01,11.50
2013,04,01,11,02,11.40
2013,04,01,11,03,11.40
2013,04,01,11,04,11.30
2013,04,01,11,05,11.30
2013,04,01,11,06,11.40
2013,04,01,11,07,11.50
2013,04,01,11,08,11.60
2013,04,01,11,09,11.60
2013,04,01,11,10,11.70
2013,04,01,11,11,11.80
2013,04,01,11,12,11.80
2013,04,01,11,13,11.80
2013,04,01,11,14,11.70
2013,04,01,11,15,11.60
2013,04,01,11,16,11.60
2013,04,01,11,17,11.60
2013,04,01,11,18,11.60
2013,04,01,11,19,11.60
2013,04,01,11,20,11.50
2013,04,01,11,21,11.50
2013,04,01,11,22,11.40
2013,04,01,11,23,11.40
2013,04,01,11,24,11.50
2013,04,01,11,25,11.60
2013,04,01,11,26,11.70
2013,04,01,11,27,11.70
2013,04,01,11,28,11.70
2013,04,01,11,29,11.80
2013,04,01,11,30,11.80
2013,04,01,11,31,11.80
2013,04,01,11,32,11.80
2013,04,01,11,33,11.90
2013,04,01,11,34,11.90
2013,04,01,11,35,11.90
2013,04,01,11,36,11.90
2013,04,01,11,37,11.80
2013,04,01,11,38,11.80
2013,04,01,11,39,11.90
2013,04,01,11,40,11.90
2013,04,01,11,41,11.90
2013,04,01,11,42,11.90
2013,04,01,11,43,11.80
2013,04,01,11,44,11.90
2013,04,01,11,45,11.80
2013,04,01,11,46,11.80
2013,04,01,11,47,11.80
2013,04,01,11,48,11.80
2013,04,01,11,49,11.80
2013,04,01,11,50,11.80
2013,04,01,11,51,11.80
2013,04,01,11,52,11.80
2013,04,01,11,53,11.80
2013,04,01,11,54,11.70
2013,04,01,11,55,11.70
2013,04,01,11,56,11.70
2013,04,01,11,57,11.80
2013,04,01,11,58,11.80
2013,04,01,11,59,11.80
2013,04,01,12,00,11.80
2013,04,01,12,01,11.80
2013,04,01,12,02,11.90
2013,04,01,12,03,12.00
2013,04,01,12,04,12.00
2013,04,01,12,05,12.10
2013,04,01,12,06,12.20
2013,04,01,12,07,12.20
2013,04,01,12,08,12.30
2013,04,01,12,09,12.40
2013,04,01,12,10,12.40
2013,04,01,12,11,12.50
2013,04,01,12,12,12.50
2013,04,01,12,13,12.60
2013,04,01,12,14,12.60
2013,04,01,12,15,12.60
2013,04,01,12,16,12.70
2013,04,01,12,17,12.80
2013,04,01,12,18,12.90
2013,04,01,12,19,12.90
2013,04,01,12,20,13.00
2013,04,01,12,21,13.00
2013,04,01,12,22,12.90
2013,04,01,12,23,12.80
2013,04,01,12,24,12.80
2013,04,01,12,25,12.70
2013,04,01,12,26,12.70
2013,04,01,12,27,12.70
2013,04,01,12,28,12.70
2013,04,01,12,29,12.70
2013,04,01,12,30,12.80
2013,04,01,12,31,12.70
2013,04,01,12,32,12.70
2013,04,01,12,33,12.80
2013,04,01,12,34,12.80
2013,04,01,12,35,12.80
2013,04,01,12,36,12.80
2013,04,01,12,37,12.80
2013,04,01,12,38,12.80
2013,04,01,12,39,12.90
2013,04,01,12,40,12.90
2013,04,01,12,41,12.90
2013,04,01,12,42,13.00
2013,04,01,12,43,13.10
2013,04,01,12,44,13.30
2013,04,01,12,45,13.40
2013,04,01,12,46,13.40
2013,04,01,12,47,13.40
2013,04,01,12,48,13.40
2013,04,01,12,49,13.40
2013,04,01,12,50,13.40
2013,04,01,12,51,13.40
2013,04,01,12,52,13.50
2013,04,01,12,53,13.50
2013,04,01,12,54,13.60
2013,04,01,12,55,13.60
2013,04,01,12,56,13.60
2013,04,01,12,57,13.70
2013,04,01,12,58,13.70
2013,04,01,12,59,13.80
2013,04,01,13,00,13.80
2013,04,01,13,01,13.80
2013,04,01,13,02,13.70
2013,04,01,13,03,13.70
2013,04,01,13,04,13.80
2013,04,01,13,05,13.80
2013,04,01,13,06,13.80
2013,04,01,13,07,13.80
2013,04,01,13,08,13.80
2013,04,01,13,09,13.80
2013,04,01,13,10,13.90
2013,04,01,13,11,13.90
2013,04,01,13,12,13.90
2013,04,01,13,13,14.00
2013,04,01,13,14,14.00
2013,04,01,13,15,14.00
2013,04,01,13,16,13.90
2013,04,01,13,17,13.80
2013,04,01,13,18,13.70
2013,04,01,13,19,13.60
2013,04,01,13,20,13.60
2013,04,01,13,21,13.50
2013,04,01,13,22,13.40
2013,04,01,13,23,13.40
2013,04,01,13,24,13.40
2013,04,01,13,25,13.40
2013,04,01,13,26,13.40
2013,04,01,13,27,13.50
2013,04,01,13,28,13.60
2013,04,01,13,29,13.70
2013,04,01,13,30,13.80
2013,04,01,13,31,13.80
2013,04,01,13,32,13.80
2013,04,01,13,33,13.80
2013,04,01,13,34,13.80
2013,04,01,13,35,13.80
2013,04,01,13,36,13.80
2013,04,01,13,37,13.80
2013,04,01,13,38,13.80
2013,04,01,13,39,13.90
2013,04,01,13,40,14.00
2013,04,01,13,41,14.00
2013,04,01,13,42,14.00
2013,04,01,13,43,14.10
2013,04,01,13,44,14.10
2013,04,01,13,45,14.20
2013,04,01,13,46,14.30
2013,04,01,13,47,14.40
2013,04,01,13,48,14.50
2013,04,01,13,49,14.60
2013,04,01,13,50,14.70
2013,04,01,13,51,14.70
2013,04,01,13,52,14.70
2013,04,01,13,53,14.70
2013,04,01,13,54,14.70
2013,04,01,13,55,14.80
2013,04,01,13,56,14.90
2013,04,01,13,57,15.00
2013,04,01,13,58,15.10
2013,04,01,13,59,15.20
2013,04,01,14,00,15.30
2013,04,01,14,01,15.30
2013,04,01,14,02,15.10
2013,04,01,14,03,15.00
2013,04,01,14,04,15.00
2013,04,01,14,05,14.80
2013,04,01,14,06,14.70
2013,04,01,14,07,14.50
2013,04,01,14,08,14.30
2013,04,01,14,09,14.20
2013,04,01,14,10,14.10
2013,04,01,14,11,14.10
2013,04,01,14,12,14.10
2013,04,01,14,13,14.10
2013,04,01,14,14,14.10
2013,04,01,14,15,14.00
2013,04,01,14,16,13.90
2013,04,01,14,17,13.80
2013,04,01,14,18,13.80
2013,04,01,14,19,13.80
2013,04,01,14,20,13.80
2013,04,01,14,21,13.80
2013,04,01,14,22,13.80
2013,04,01,14,23,13.70
2013,04,01,14,24,13.60
2013,04,01,14,25,13.50
2013,04,01,14,26,13.40
2013,04,01,14,27,13.30
2013,04,01,14,28,13.30
2013,04,01,14,29,13.30
2013,04,01,14,30,13.30
2013,04,01,14,31,13.30
2013,04,01,14,32,13.30
2013,04,01,14,33,13.30
2013,04,01,14,34,13.30
2013,04,01,14,35,13.30
2013,04,01,14,36,13.30
2013,04,01,14,37,13.30
2013,04,01,14,38,13.30
2013,04,01,14,39,13.30
2013,04,01,14,40,13.40
2013,04,01,14,41,13.50
2013,04,01,14,42,13.60
2013,04,01,14,43,13.60
2013,04,01,14,44,13.70
2013,04,01,14,45,13.70
2013,04,01,14,46,13.70
2013,04,01,14,47,13.60
2013,04,01,14,48,13.60
2013,04,01,14,49,13.50
2013,04,01,14,50,13.40
2013,04,01,14,51,13.30
2013,04,01,14,52,13.20
2013,04,01,14,53,13.20
2013,04,01,14,54,13.20
2013,04,01,14,55,13.20
2013,04,01,14,56,13.20
2013,04,01,14,57,13.20
2013,04,01,14,58,13.20
2013,04,01,14,59,13.30
2013,04,01,15,00,13.40
2013,04,01,15,01,13.50
2013,04,01,15,02,13.60
2013,04,01,15,03,13.70
2013,04,01,15,04,13.70
2013,04,01,15,05,13.90
2013,04,01,15,06,14.00
2013,04,01,15,07,14.00
2013,04,01,15,08,14.10
2013,04,01,15,09,14.10
2013,04,01,15,10,14.10
2013,04,01,15,11,14.10
2013,04,01,15,12,14.20
2013,04,01,15,13,14.30
2013,04,01,15,14,14.30
2013,04,01,15,15,14.30
2013,04,01,15,16,14.30
2013,04,01,15,17,14.30
2013,04,01,15,18,14.30
2013,04,01,15,19,14.30
2013,04,01,15,20,14.20
2013,04,01,15,21,14.20
2013,04,01,15,22,14.30
2013,04,01,15,23,14.30
2013,04,01,15,24,14.30
2013,04,01,15,25,14.30
2013,04,01,15,26,14.40
2013,04,01,15,27,14.40
2013,04,01,15,28,14.50
2013,04,01,15,29,14.60
2013,04,01,15,30,14.70
2013,04,01,15,31,14.80
2013,04,01,15,32,14.80
2013,04,01,15,33,14.80
2013,04,01,15,34,14.80
2013,04,01,15,35,14.90
2013,04,01,15,36,14.90
2013,04,01,15,37,14.80
2013,04,01,15,38,14.80
2013,04,01,15,39,14.90
2013,04,01,15,40,14.90
2013,04,01,15,41,14.90
2013,04,01,15,42,14.90
2013,04,01,15,43,15.00
2013,04,01,15,44,15.00
2013,04,01,15,45,15.00
2013,04,01,15,46,15.20
2013,04,01,15,47,15.50
2013,04,01,15,48,15.60
2013,04,01,15,49,15.60
2013,04,01,15,50,15.50
2013,04,01,15,51,15.30
2013,04,01,15,52,15.30
2013,04,01,15,53,15.30
2013,04,01,15,54,15.40
2013,04,01,15,55,15.60
2013,04,01,15,56,15.70
2013,04,01,15,57,15.70
2013,04,01,15,58,15.60
2013,04,01,15,59,15.60
2013,04,01,16,00,15.60
2013,04,01,16,01,15.70
2013,04,01,16,02,15.70
2013,04,01,16,03,15.70
2013,04,01,16,04,15.50
2013,04,01,16,05,15.30
2013,04,01,16,06,15.20
2013,04,01,16,07,15.00
2013,04,01,16,08,15.00
2013,04,01,16,09,15.10
2013,04,01,16,10,15.30
2013,04,01,16,11,15.40
2013,04,01,16,12,15.30
2013,04,01,16,13,15.30
2013,04,01,16,14,15.30
2013,04,01,16,15,15.30
2013,04,01,16,16,15.30
2013,04,01,16,17,15.30
2013,04,01,16,18,15.40
2013,04,01,16,19,15.40
2013,04,01,16,20,15.40
2013,04,01,16,21,15.40
2013,04,01,16,22,15.40
2013,04,01,16,23,15.30
2013,04,01,16,24,15.20
2013,04,01,16,25,15.00
2013,04,01,16,26,15.00
2013,04,01,16,27,15.00
2013,04,01,16,28,15.00
2013,04,01,16,29,15.10
2013,04,01,16,30,15.20
2013,04,01,16,31,15.30
2013,04,01,16,32,15.40
2013,04,01,16,33,15.40
2013,04,01,16,34,15.50
2013,04,01,16,35,15.50
2013,04,01,16,36,15.50
2013,04,01,16,37,15.40
2013,04,01,16,38,15.40
2013,04,01,16,39,15.40
2013,04,01,16,40,15.40
2013,04,01,16,41,15.50
2013,04,01,16,42,15.40
2013,04,01,16,43,15.40
2013,04,01,16,44,15.40
2013,04,01,16,45,15.30
2013,04,01,16,46,15.30
2013,04,01,16,47,15.20
2013,04,01,16,48,15.20
2013,04,01,16,49,15.20
2013,04,01,16,50,15.30
2013,04,01,16,51,15.40
2013,04,01,16,52,15.40
2013,04,01,16,53,15.40
2013,04,01,16,54,15.40
2013,04,01,16,55,15.40
2013,04,01,16,56,15.30
2013,04,01,16,57,15.30
2013,04,01,16,58,15.30
2013,04,01,16,59,15.20
2013,04,01,17,00,15.10
2013,04,01,17,01,15.10
2013,04,01,17,02,15.20
2013,04,01,17,03,15.20
2013,04,01,17,04,15.20
2013,04,01,17,05,15.20
2013,04,01,17,06,15.20
2013,04,01,17,07,15.20
2013,04,01,17,08,15.10
2013,04,01,17,09,15.20
2013,04,01,17,10,15.20
2013,04,01,17,11,15.30
2013,04,01,17,12,15.40
2013,04,01,17,13,15.40
2013,04,01,17,14,15.40
2013,04,01,17,15,15.40
2013,04,01,17,16,15.40
2013,04,01,17,17,15.50
2013,04,01,17,18,15.50
2013,04,01,17,19,15.50
2013,04,01,17,20,15.50
2013,04,01,17,21,15.50
2013,04,01,17,22,15.50
2013,04,01,17,23,15.60
2013,04,01,17,24,15.60
2013,04,01,17,25,15.60
2013,04,01,17,26,15.60
2013,04,01,17,27,15.70
2013,04,01,17,28,15.70
2013,04,01,17,29,15.70
2013,04,01,17,30,15.60
2013,04,01,17,31,15.60
2013,04,01,17,32,15.50
2013,04,01,17,33,15.40
2013,04,01,17,34,15.30
2013,04,01,17,35,15.10
2013,04,01,17,36,15.00
2013,04,01,17,37,15.00
2013,04,01,17,38,15.00
2013,04,01,17,39,15.00
2013,04,01,17,40,14.90
2013,04,01,17,41,14.80
2013,04,01,17,42,14.90
2013,04,01,17,43,14.90
2013,04,01,17,44,15.00
2013,04,01,17,45,15.00
2013,04,01,17,46,15.00
2013,04,01,17,47,15.00
2013,04,01,17,48,15.00
2013,04,01,17,49,15.10
2013,04,01,17,50,15.20
2013,04,01,17,51,15.30
2013,04,01,17,52,15.30
2013,04,01,17,53,15.40
2013,04,01,17,54,15.50
2013,04,01,17,55,15.50
2013,04,01,17,56,15.60
2013,04,01,17,57,15.70
2013,04,01,17,58,15.70
2013,04,01,17,59,15.70
2013,04,01,18,00,15.70
2013,04,01,18,01,15.70
2013,04,01,18,02,15.70
2013,04,01,18,03,15.70
2013,04,01,18,04,15.60
2013,04,01,18,05,15.50
2013,04,01,18,06,15.40
2013,04,01,18,07,15.30
2013,04,01,18,08,15.30
2013,04,01,18,09,15.30
2013,04,01,18,10,15.20
2013,04,01,18,11,15.20
2013,04,01,18,12,15.20
2013,04,01,18,13,15.10
2013,04,01,18,14,15.10
2013,04,01,18,15,15.10
2013,04,01,18,16,15.20
2013,04,01,18,17,15.20
2013,04,01,18,18,15.20
2013,04,01,18,19,15.20
2013,04,01,18,20,15.20
2013,04,01,18,21,15.20
2013,04,01,18,22,15.20
2013,04,01,18,23,15.10
2013,04,01,18,24,15.00
2013,04,01,18,25,15.00
2013,04,01,18,26,15.00
2013,04,01,18,27,15.00
2013,04,01,18,28,15.00
2013,04,01,18,29,15.00
2013,04,01,18,30,15.00
2013,04,01,18,31,15.00
2013,04,01,18,32,15.00
2013,04,01,18,33,15.00
2013,04,01,18,34,15.00
2013,04,01,18,35,15.00
2013,04,01,18,36,15.00
2013,04,01,18,37,14.90
2013,04,01,18,38,14.90
2013,04,01,18,39,14.80
2013,04,01,18,40,14.80
2013,04,01,18,41,14.70
2013,04,01,18,42,14.80
2013,04,01,18,43,14.80
2013,04,01,18,44,14.70
2013,04,01,18,45,14.60
2013,04,01,18,46,14.60
2013,04,01,18,47,14.50
2013,04,01,18,48,14.50
2013,04,01,18,49,14.40
2013,04,01,18,50,14.30
2013,04,01,18,51,14.20
2013,04,01,18,52,14.10
2013,04,01,18,53,14.00
2013,04,01,18,54,13.90
2013,04,01,18,55,13.90
2013,04,01,18,56,13.80
2013,04,01,18,57,13.80
2013,04,01,18,58,13.90
2013,04,01,18,59,13.90
2013,04,01,19,00,13.90
2013,04,01,19,01,13.90
2013,04,01,19,02,13.90
2013,04,01,19,03,13.90
2013,04,01,19,04,13.90
2013,04,01,19,05,13.80
2013,04,01,19,06,13.80
2013,04,01,19,07,13.70
2013,04,01,19,08,13.70
2013,04,01,19,09,13.60
2013,04,01,19,10,13.60
2013,04,01,19,11,13.60
2013,04,01,19,12,13.60
2013,04,01,19,13,13.60
2013,04,01,19,14,13.60
2013,04,01,19,15,13.60
2013,04,01,19,16,13.60
2013,04,01,19,17,13.50
2013,04,01,19,18,13.50
2013,04,01,19,19,13.40
2013,04,01,19,20,13.30
2013,04,01,19,21,13.20
2013,04,01,19,22,13.00
2013,04,01,19,23,12.90
2013,04,01,19,24,12.80
2013,04,01,19,25,12.80
2013,04,01,19,26,12.70
2013,04,01,19,27,12.70
2013,04,01,19,28,12.60
2013,04,01,19,29,12.60
2013,04,01,19,30,12.60
2013,04,01,19,31,12.70
2013,04,01,19,32,12.70
2013,04,01,19,33,12.80
2013,04,01,19,34,12.80
2013,04,01,19,35,12.80
2013,04,01,19,36,12.90
2013,04,01,19,37,12.90
2013,04,01,19,38,12.90
2013,04,01,19,39,12.90
2013,04,01,19,40,12.90
2013,04,01,19,41,12.80
2013,04,01,19,42,12.80
2013,04,01,19,43,12.80
2013,04,01,19,44,12.80
2013,04,01,19,45,12.80
2013,04,01,19,46,12.80
2013,04,01,19,47,12.80
2013,04,01,19,48,12.70
2013,04,01,19,49,12.70
2013,04,01,19,50,12.70
2013,04,01,19,51,12.70
2013,04,01,19,52,12.60
2013,04,01,19,53,12.60
2013,04,01,19,54,12.60
2013,04,01,19,55,12.60
2013,04,01,19,56,12.60
2013,04,01,19,57,12.50
2013,04,01,19,58,12.50
2013,04,01,19,59,12.40
2013,04,01,20,00,12.40
2013,04,01,20,01,12.30
2013,04,01,20,02,12.30
2013,04,01,20,03,12.20
2013,04,01,20,04,12.20
2013,04,01,20,05,12.20
2013,04,01,20,06,12.20
2013,04,01,20,07,12.20
2013,04,01,20,08,12.20
2013,04,01,20,09,12.10
2013,04,01,20,10,12.00
2013,04,01,20,11,12.00
2013,04,01,20,12,12.00
2013,04,01,20,13,12.00
2013,04,01,20,14,12.00
2013,04,01,20,15,12.00
2013,04,01,20,16,12.00
2013,04,01,20,17,12.00
2013,04,01,20,18,12.00
2013,04,01,20,19,12.00
2013,04,01,20,20,12.00
